PDT,Max TemperatureF,Mean TemperatureF,Min TemperatureF,Max Dew PointF,MeanDew PointF,Min DewpointF,Max Humidity, Mean Humidity, Min Humidity, Max Sea Level PressureIn, Mean Sea Level PressureIn, Min Sea Level PressureIn, Max VisibilityMiles, Mean VisibilityMiles, Min VisibilityMiles, Max Wind SpeedMPH, Mean Wind SpeedMPH, Max Gust SpeedMPH,PrecipitationIn, CloudCover, Events, WindDirDegrees
2012-5-1,64,49,34,36,31,26,75,50,25,29.81,29.76,29.69,10,10,10,21,8,25,T,5,,149
2012-5-2,60,49,37,40,32,25,92,60,27,29.90,29.86,29.83,10,10,10,15,6,21,0.04,6,Rain,185
2012-5-3,50,46,41,45,41,31,93,76,58,29.82,29.74,29.69,10,9,6,12,3,23,0.14,8,Rain,298
2012-5-4,55,45,35,44,40,35,100,80,59,30.18,29.98,29.82,10,10,5,20,6,26,0.17,6,Rain,327
2012-5-5,61,45,29,36,30,27,96,63,29,30.40,30.31,30.20,10,10,10,13,4,17,0.00,1,,334
2012-5-6,66,50,33,33,29,24,75,48,20,30.47,30.41,30.33,10,10,10,13,6,17,0.00,0,,251
2012-5-7,72,55,37,38,34,31,82,54,25,30.39,30.28,30.14,10,10,10,14,6,18,0.00,0,,231
2012-5-8,79,62,44,41,36,28,76,48,19,30.13,29.99,29.84,10,10,10,16,7,21,0.00,0,,207
2012-5-9,68,52,35,38,24,13,56,34,12,30.14,29.97,29.86,10,10,10,26,9,35,0.00,0,,317
2012-5-10,62,45,28,23,18,11,63,39,14,30.30,30.24,30.16,10,10,10,14,5,17,0.00,0,,319
2012-5-11,67,51,34,31,23,16,59,37,15,30.35,30.27,30.17,10,10,10,13,6,16,0.00,0,,322
2012-5-12,76,54,32,34,29,24,75,45,15,30.34,30.26,30.17,10,10,10,15,5,28,0.00,0,,240
2012-5-13,83,60,37,37,34,30,82,49,15,30.26,30.15,30.04,10,10,10,14,6,17,0.00,0,,227
2012-5-14,88,65,42,45,38,35,76,46,16,30.13,30.02,29.90,10,10,10,10,6,18,0.00,0,,294
2012-5-15,89,67,45,42,36,26,71,42,13,29.96,29.88,29.77,10,10,10,13,5,17,0.00,0,,325
2012-5-16,78,62,45,41,35,29,61,39,16,29.90,29.86,29.82,10,10,9,20,7,28,0.00,0,,290
2012-5-17,72,59,45,37,28,16,65,41,16,29.91,29.85,29.75,10,10,10,18,8,24,0.00,1,,338
2012-5-18,70,54,38,32,26,21,60,39,17,30.01,29.97,29.90,10,10,10,14,6,20,0.00,0,,311
2012-5-19,72,62,51,39,29,24,51,35,19,30.04,30.01,29.98,10,10,8,21,9,28,0.00,3,,317
2012-5-20,69,60,51,52,44,36,80,56,32,30.01,29.98,29.94,10,10,5,22,6,29,0.06,6,Rain,186
2012-5-21,65,59,52,59,53,49,90,79,67,29.92,29.81,29.71,10,10,2,21,7,25,0.11,6,Rain,175
2012-5-22,68,57,46,50,37,25,100,60,19,29.78,29.75,29.73,10,10,10,21,6,26,0.00,2,,191
2012-5-23,68,56,43,41,37,33,83,57,31,29.85,29.81,29.77,10,10,10,22,5,30,0.01,5,Rain,290
2012-5-24,66,52,38,39,35,29,76,52,28,29.84,29.80,29.75,10,10,10,22,9,26,0.00,2,,341
2012-5-25,73,62,51,43,37,26,66,43,19,29.91,29.88,29.84,10,10,10,22,12,30,0.00,6,,351
2012-5-26,67,56,45,35,32,30,58,45,32,29.92,29.90,29.79,10,10,10,14,8,,0.00,2,,322
2012-5-27,79,60,41,35,33,31,46,32,18,29.85,29.79,29.76,10,10,10,14,4,16,0.00,1,,253
2012-5-28,75,59,42,38,36,34,76,50,23,29.94,29.89,29.85,10,10,10,20,7,25,0.00,2,,172
2012-5-29,72,57,41,41,33,25,82,50,18,30.01,29.96,29.89,10,10,10,14,6,18,0.00,1,,218
2012-5-30,74,62,50,47,38,32,56,43,29,30.12,30.07,30.02,10,10,10,15,8,18,T,2,,253
2012-5-31,74,64,54,50,48,40,72,57,41,30.05,30.00,29.92,10,10,10,17,6,22,T,3,,176